Location: Apeadero de Los Molinos-Guadarrama
(40.7091°N, 4.0689°W)
Time: 12:33:52
(UTC+00:00)

Cosmos 1975 - Pass Details

Date: 14 May 2021
Orbit: 541 x 561 km, 82.5° (Epoch: 18 June)

Event Time Altitude Azimuth Distance (km) Brightness Sun altitude
Rises 22:43:38 0° 358° (N) 2,709 7.4 -26.9°
Reaches altitude 10° 22:45:52 10° 4° (N) 1,812 6.2 -27.1°
Enters shadow 22:48:15 31° 25° (NNE) 960 4.3 -27.3°
